TimeCST,TemperatureF,Dew PointF,Humidity,Sea Level PressureIn,VisibilityMPH,Wind Direction,Wind SpeedMPH,Gust SpeedMPH,PrecipitationIn,Events,Conditions,WindDirDegrees,DateUTC
12:08 AM,37.4,35.6,93,29.83,1.0,ESE,11.5,-,0.03,Rain-Thunderstorm,Thunderstorms and Rain,110,2013-01-29 06:08:00
12:37 AM,37.4,35.6,93,29.78,3.0,ESE,12.7,-,0.17,Rain-Thunderstorm,Light Rain,110,2013-01-29 06:37:00
12:53 AM,37.9,36.0,93,29.78,5.0,ESE,15.0,-,0.19,Thunderstorm,Overcast,120,2013-01-29 06:53:00
1:00 AM,37.4,35.6,93,29.77,1.8,ESE,11.5,-,N/A,Thunderstorm,Overcast,120,2013-01-29 07:00:00
1:04 AM,37.4,37.4,100,29.77,0.8,SE,9.2,18.4,N/A,,Overcast,130,2013-01-29 07:04:00
1:17 AM,37.4,37.4,100,29.77,0.2,East,5.8,-,N/A,Fog,Fog,100,2013-01-29 07:17:00
1:53 AM,39.0,37.9,96,29.76,0.2,ESE,8.1,-,0.01,Fog,Fog,110,2013-01-29 07:53:00
2:49 AM,39.2,37.4,93,29.69,0.2,ESE,3.5,-,0.04,Fog-Thunderstorm,Fog,110,2013-01-29 08:49:00
2:53 AM,39.0,37.9,96,29.71,0.2,ESE,3.5,-,0.04,Fog-Thunderstorm,Fog,110,2013-01-29 08:53:00
3:04 AM,39.2,37.4,93,29.68,0.2,Calm,Calm,-,N/A,Fog,Fog,0,2013-01-29 09:04:00
3:53 AM,39.0,37.0,93,29.68,0.2,NNW,3.5,-,N/A,Fog,Fog,340,2013-01-29 09:53:00
5:53 AM,39.9,39.0,97,29.65,0.5,East,3.5,-,N/A,Fog,Fog,90,2013-01-29 11:53:00
6:02 AM,39.2,39.2,100,29.63,0.5,Calm,Calm,-,N/A,Fog,Fog,0,2013-01-29 12:02:00
6:36 AM,41.0,37.4,87,29.63,1.2,Calm,Calm,-,N/A,,Overcast,0,2013-01-29 12:36:00
6:41 AM,41.0,39.2,93,29.62,2.0,Calm,Calm,-,N/A,,Overcast,0,2013-01-29 12:41:00
6:49 AM,42.8,41.0,93,29.62,0.8,SSW,3.5,-,N/A,,Overcast,200,2013-01-29 12:49:00
6:53 AM,44.1,42.1,93,29.64,0.5,Calm,Calm,-,N/A,Fog,Fog,0,2013-01-29 12:53:00
7:06 AM,46.4,44.6,93,29.62,1.0,South,5.8,-,N/A,,Overcast,190,2013-01-29 13:06:00
7:40 AM,55.4,55.4,100,29.63,1.0,WSW,6.9,-,0.18,Rain,Heavy Rain,240,2013-01-29 13:40:00
7:53 AM,55.9,54.0,93,29.65,1.0,West,5.8,-,0.22,Rain,Light Rain,280,2013-01-29 13:53:00
8:11 AM,55.4,55.4,100,29.63,1.0,SW,6.9,-,0.00,,Overcast,230,2013-01-29 14:11:00
8:17 AM,55.4,55.4,100,29.63,3.0,SW,8.1,-,0.00,,Overcast,220,2013-01-29 14:17:00
8:53 AM,57.0,55.0,93,29.62,4.0,SSW,10.4,-,0.01,Rain,Light Rain,210,2013-01-29 14:53:00
9:53 AM,60.1,55.9,86,29.62,4.0,SW,17.3,23.0,0.00,,Overcast,220,2013-01-29 15:53:00
10:21 AM,60.8,55.4,82,29.61,5.0,SSW,17.3,24.2,N/A,,Haze,210,2013-01-29 16:21:00
10:36 AM,60.8,55.4,82,29.59,6.0,SSW,13.8,21.9,N/A,,Haze,210,2013-01-29 16:36:00
10:53 AM,61.0,55.9,83,29.60,6.0,SSW,12.7,-,N/A,,Haze,210,2013-01-29 16:53:00
10:58 AM,60.8,55.4,82,29.59,6.0,SSW,12.7,-,N/A,,Haze,210,2013-01-29 16:58:00
11:53 AM,61.0,55.9,83,29.58,5.0,SSW,9.2,-,N/A,,Haze,210,2013-01-29 17:53:00
12:53 PM,62.1,57.0,84,29.55,5.0,SSW,13.8,20.7,N/A,,Haze,210,2013-01-29 18:53:00
1:53 PM,62.1,57.0,84,29.52,5.0,SSW,10.4,-,N/A,,Haze,210,2013-01-29 19:53:00
2:53 PM,61.0,55.9,83,29.52,5.0,SSW,9.2,-,N/A,,Haze,200,2013-01-29 20:53:00
3:09 PM,60.8,55.4,82,29.51,1.8,SSW,6.9,-,0.03,Rain,Rain,200,2013-01-29 21:09:00
3:30 PM,60.8,57.2,88,29.50,2.0,South,8.1,-,0.06,Rain,Light Rain,180,2013-01-29 21:30:00
3:53 PM,59.0,57.0,93,29.50,2.5,South,6.9,-,0.06,Rain,Light Rain,180,2013-01-29 21:53:00
3:59 PM,59.0,55.4,88,29.49,1.0,South,6.9,-,0.04,Rain,Heavy Rain,190,2013-01-29 21:59:00
4:04 PM,59.0,57.2,94,29.49,0.8,SW,5.8,-,0.06,Rain,Rain,230,2013-01-29 22:04:00
4:40 PM,57.2,53.6,88,29.49,2.0,West,8.1,-,0.26,Rain,Light Rain,280,2013-01-29 22:40:00
4:53 PM,55.9,53.1,90,29.49,3.0,WNW,5.8,-,0.27,Rain,Light Rain,300,2013-01-29 22:53:00
5:00 PM,55.4,53.6,94,29.51,4.0,SW,6.9,-,0.01,Rain,Light Rain,230,2013-01-29 23:00:00
5:06 PM,55.4,51.8,88,29.49,1.8,West,5.8,-,0.05,Rain,Rain,280,2013-01-29 23:06:00
5:21 PM,55.4,53.6,94,29.47,2.0,NNW,4.6,-,0.09,Rain,Rain,340,2013-01-29 23:21:00
5:39 PM,55.4,51.8,88,29.47,4.0,Calm,Calm,-,0.10,Rain,Light Rain,0,2013-01-29 23:39:00
5:53 PM,55.0,53.1,93,29.48,4.0,Calm,Calm,-,0.11,Rain,Light Rain,0,2013-01-29 23:53:00
5:59 PM,55.4,53.6,94,29.49,2.5,Calm,Calm,-,0.02,Rain,Rain,0,2013-01-29 23:59:00
6:06 PM,53.6,51.8,94,29.48,1.8,NNW,3.5,-,0.04,Rain,Rain,330,2013-01-30 00:06:00
6:14 PM,53.6,51.8,94,29.48,2.0,NNW,4.6,-,0.05,Rain,Rain,330,2013-01-30 00:14:00
6:29 PM,53.6,51.8,94,29.47,1.0,North,3.5,-,0.07,Rain,Light Rain,10,2013-01-30 00:29:00
6:50 PM,53.6,51.8,94,29.47,0.5,Calm,Calm,-,0.10,Fog-Rain,Light Rain,0,2013-01-30 00:50:00
6:53 PM,53.1,51.1,93,29.48,0.5,Calm,Calm,-,0.10,Fog-Rain,Light Rain,0,2013-01-30 00:53:00
7:04 PM,51.8,48.2,88,29.48,0.2,South,3.5,-,0.02,Fog-Rain,Light Rain,190,2013-01-30 01:04:00
7:53 PM,52.0,50.0,93,29.46,0.2,Calm,Calm,-,0.10,Fog-Rain,Light Rain,0,2013-01-30 01:53:00
7:57 PM,51.8,50.0,94,29.46,0.5,Calm,Calm,-,0.00,Fog-Rain,Light Rain,0,2013-01-30 01:57:00
8:11 PM,51.8,50.0,94,29.46,0.2,Calm,Calm,-,0.02,Fog-Rain,Light Rain,0,2013-01-30 02:11:00
8:19 PM,51.8,50.0,94,29.46,0.5,Calm,Calm,-,0.04,Fog-Rain,Rain,0,2013-01-30 02:19:00
8:40 PM,48.2,46.4,93,29.46,0.5,NE,12.7,18.4,0.08,Fog-Rain,Rain,40,2013-01-30 02:40:00
8:45 PM,48.2,46.4,93,29.46,1.5,NE,11.5,18.4,0.09,Rain,Rain,40,2013-01-30 02:45:00
8:47 PM,48.2,44.6,87,29.46,3.0,NE,10.4,-,0.09,Rain,Rain,40,2013-01-30 02:47:00
8:53 PM,46.9,45.0,93,29.46,3.0,NE,9.2,-,0.11,Rain,Rain,40,2013-01-30 02:53:00
9:30 PM,44.6,42.8,93,29.46,3.0,NNE,10.4,-,0.08,Rain,Rain,20,2013-01-30 03:30:00
9:40 PM,44.6,42.8,93,29.45,2.5,NNE,8.1,-,0.11,Rain,Rain,20,2013-01-30 03:40:00
9:53 PM,44.1,42.1,93,29.44,2.5,NNE,9.2,-,0.14,Rain,Rain,20,2013-01-30 03:53:00
10:01 PM,44.6,42.8,93,29.44,3.0,NNE,8.1,-,0.01,Rain,Light Rain,20,2013-01-30 04:01:00
10:26 PM,42.8,41.0,93,29.44,4.0,NNE,8.1,-,0.04,Rain,Light Rain,20,2013-01-30 04:26:00
10:53 PM,42.1,39.9,92,29.44,4.0,NE,8.1,-,0.08,Rain,Light Rain,50,2013-01-30 04:53:00
11:04 PM,42.8,39.2,87,29.45,4.0,North,8.1,-,0.02,Rain,Light Rain,360,2013-01-30 05:04:00
11:32 PM,41.0,39.2,93,29.44,5.0,North,8.1,-,0.05,Rain,Light Rain,10,2013-01-30 05:32:00
11:53 PM,39.9,37.9,93,29.43,7.0,North,10.4,-,0.06,Rain,Light Rain,10,2013-01-30 05:53:00